Location: Kalberh�ni
(46.4610°N, 7.2453°E)
Time: 09:01:43
(UTC+00:00)

deb Kosmos-2227 - Pass Details

Date: 18 August 2022
Orbit: 774 x 865 km, 70.9° (Epoch: 26 September)

Event Time Altitude Azimuth Distance (km) Brightness Sun altitude
Rises 00:20:42 0° 318° (NW) 3,365 ? -29.5°
Reaches altitude 10° 00:24:03 10° 297° (WNW) 2,445 ? -29.4°
Enters shadow 00:25:19 13° 285° (WNW) 2,214 ? -29.3°
